EW1895 Weather Reports


time (UTC)temp
C
wind
direction
speed
KPH
gust
KPH
rain 1hr
cm
rain 24hr
cm
rain mn
cm
humidity
%
barometer
mb
20260906053018 21 324 0.0 0.0 0.00 0.00 0.00 96 1012.4
20260906051518 21 324 0.0 0.0 0.00 0.00 0.00 96 1012.5
20260906050018 21 324 0.0 0.0 0.00 0.00 0.00 96 1012.6
20260906044517 21 324 0.0 0.0 0.00 0.00 0.00 96 1012.7
20260906043025 21 324 0.0 0.0 0.00 0.00 0.00 96 1012.7
20260906041517 21 324 0.0 0.0 0.00 0.00 0.00 95 1012.6
20260906040022 21 324 0.0 0.0 0.00 0.00 0.00 95 1012.5
20260906034529 21 324 0.0 0.0 0.00 0.00 0.00 95 1012.5
20260906033024 21 324 0.0 0.0 0.00 0.00 0.00 95 1012.6
20260906031518 21 324 0.0 0.0 0.00 0.00 0.00 95 1012.5
20260906030015 21 324 0.0 0.0 0.00 0.00 0.00 95 1012.4
20260906024514 21 324 0.0 0.0 0.00 0.00 0.00 94 1012.3
20260906023015 21 324 0.0 0.0 0.00 0.00 0.00 95 1012.4
20260906021513 21 324 0.0 0.0 0.00 0.00 0.00 94 1012.4
20260906020012 22 324 0.0 0.0 0.00 0.00 0.00 94 1012.6
20260906014525 22 324 0.0 0.0 0.00 0.00 0.00 94 1012.4
20260906013015 22 324 0.0 0.0 0.00 0.00 0.00 94 1012.2
20260906011517 22 324 0.0 0.0 0.00 0.00 0.00 94 1012.1
20260906010011 22 324 0.0 0.0 0.00 0.00 0.00 94 1011.9
20260906004514 22 324 0.0 0.0 0.00 0.00 0.00 94 1011.5
20260906003011 22 324 0.0 0.0 0.00 0.00 0.00 94 1011.4
20260906001510 23 324 0.0 0.0 0.00 0.00 0.00 93 1011.2
20260906000010 23 324 0.0 0.0 0.00 0.00 0.00 93 1011.0
20260905234510 23 324 0.0 0.0 0.00 0.00 0.00 93 1010.8
20260905233010 23 324 0.0 0.0 0.00 0.00 0.00 93 1010.8
20260905231509 23 324 0.0 0.0 0.00 0.00 0.00 92 1010.7
20260905230012 24 324 0.0 0.0 0.00 0.00 0.00 91 1011.0
20260905224523 24 324 0.0 0.0 0.00 0.00 0.00 90 1010.9
20260905223008 25 324 0.0 0.0 0.00 0.00 0.00 88 1011.1
20260905221508 25 324 0.0 0.0 0.00 0.00 0.00 87 1011.0
20260905220008 25 324 0.0 0.0 0.00 0.00 0.00 86 1010.7
20260905214506 25 324 0.0 0.0 0.00 0.00 0.00 87 1010.8
20260905213005 25 324 0.0 0.0 0.00 0.00 0.00 84 1010.8
20260905211504 25 324 0.0 0.0 0.00 0.00 0.00 83 1010.8
20260905210010 25 324 0.0 0.0 0.00 0.00 0.00 85 1010.8
20260905204503 25 324 0.0 0.0 0.00 0.00 0.00 86 1010.8
20260905203003 25 324 0.0 0.0 0.00 0.00 0.00 84 1010.8
20260905201503 25 324 0.0 0.0 0.00 0.00 0.00 87 1010.9
20260905200002 24 324 0.0 0.0 0.00 0.00 0.00 92 1010.8
20260905194502 23 324 0.0 0.0 0.00 0.00 0.00 94 1010.9
20260905193109 23 324 0.0 0.0 0.00 0.00 0.00 94 1011.1
20260905191600 23 324 0.0 0.0 0.00 0.00 0.00 95 1011.6
20260905184558 23 324 0.0 0.0 0.00 0.00 0.00 95 1012.2
20260905183059 23 324 0.0 0.0 0.00 0.00 0.00 95 1012.2
20260905181601 23 324 0.0 0.0 0.00 0.00 0.00 94 1011.7
20260905180101 23 324 0.0 0.0 0.00 0.00 0.00 95 1011.3
20260905174557 23 324 0.0 1.6 0.00 0.00 0.00 95 1011.6
20260905173057 22 338 0.0 1.6 0.00 0.00 0.00 95 1011.5
20260905171556 21 341 0.0 0.0 0.00 0.00 0.00 94 1011.4
20260905170059 21 340 0.0 0.0 0.00 0.00 0.00 93 1012.4
20260905164535 21 340 0.0 0.0 0.00 0.00 0.00 92 1013.1
20260905163036 22 340 0.0 11.3 0.00 0.00 0.00 89 1013.5
20260905161556 25 325 1.6 11.3 0.00 0.00 0.00 86 1014.0
20260905160055 26 321 0.0 0.0 0.00 0.00 0.00 84 1013.0
20260905154556 26 319 0.0 0.0 0.00 0.00 0.00 84 1012.4
20260905153052 26 319 0.0 0.0 0.00 0.00 0.00 84 1012.3
20260905151554 26 319 0.0 0.0 0.00 0.00 0.00 83 1012.2
20260905150057 26 319 0.0 0.0 0.00 0.00 0.00 82 1012.4
20260905144553 26 319 0.0 0.0 0.00 0.00 0.00 83 1012.4
20260905143054 26 319 0.0 4.8 0.00 0.00 0.00 80 1012.3
20260905141545 26 329 0.0 3.2 0.00 0.00 0.00 84 1012.3
20260905140041 25 323 0.0 4.8 0.00 0.00 0.00 89 1012.1
20260905134536 23 313 0.0 1.6 0.00 0.00 0.00 94 1012.0
20260905133032 23 313 0.0 0.0 0.00 0.00 0.00 97 1012.0
20260905131544 22 264 0.0 1.6 0.00 0.00 0.00 97 1011.9
20260905130027 22 151 0.0 0.0 0.00 0.00 0.00 97 1011.9
20260905124527 22 151 0.0 0.0 0.00 0.00 0.00 97 1011.6
20260905123021 21 151 0.0 0.0 0.00 0.00 0.00 97 1011.7
20260905121520 21 151 0.0 0.0 0.00 0.00 0.00 97 1011.8
20260905120017 20 151 0.0 0.0 0.00 0.00 0.00 96 1012.0
20260905114524 20 151 0.0 0.0 0.00 0.00 0.00 96 1011.9
20260905113023 20 151 0.0 0.0 0.00 0.00 0.00 96 1011.8
20260905111512 20 151 0.0 0.0 0.00 0.00 0.00 96 1011.6
20260905110012 20 151 0.0 0.0 0.00 0.00 0.00 96 1011.4